Vorticity
nan nan nan nan nan nan nan nan nan nan nan nan nan nan nan nan nan nan nan nan nan nan nan nan nan nan nan nan nan nan nan nan nan nan nan nan nan nan nan nan nan nan nan
nan 13 14 14 14 13 13 11 9 8 10 11 12 12 12 10 9 11 9 7 8 8 7 3 5 5 9 8 11 10 13 9 8 7 9 12 10 10 9 9 8 8 nan
nan 11 11 13 14 13 10 11 11 11 10 10 9 9 11 9 9 8 8 7 5 5 6 13 9 3 4 13 7 13 11 10 10 8 7 11 11 10 11 10 10 10 nan
nan 10 9 9 8 7 7 9 7 8 8 10 10 9 9 8 9 9 11 10 10 10 11 9 5 7 7 10 7 11 11 11 10 9 9 9 11 9 10 11 9 11 nan
nan 2 3 6 9 9 10 6 9 10 10 9 10 12 12 9 8 9 9 11 12 12 11 9 8 6 8 2 4 9 10 10 8 9 10 10 8 10 10 10 11 11 nan
nan 4 -2 -3 7 9 8 11 12 9 11 10 9 9 8 8 6 11 13 10 8 8 8 10 9 8 9 11 8 8 7 7 7 8 8 8 8 8 10 10 10 8 nan
nan 5 8 13 13 10 4 8 7 9 9 9 8 8 8 7 7 10 12 10 10 11 10 9 10 12 12 12 12 11 12 14 10 7 9 8 11 9 10 10 9 7 nan
nan 9 11 17 13 9 14 10 8 8 8 9 9 8 9 9 9 10 14 14 12 11 11 11 10 9 11 9 10 12 12 12 14 12 10 7 8 13 14 11 11 7 nan
nan 9 10 9 9 11 9 8 9 10 10 9 9 11 10 7 7 11 14 13 10 11 12 12 11 11 11 10 12 11 9 11 13 10 11 10 13 15 7 7 14 12 nan
nan 9 8 10 10 10 10 11 10 10 10 9 10 10 9 10 9 10 9 8 9 10 10 10 12 10 9 15 13 10 10 9 6 11 13 15 17 20 15 4 7 8 nan
nan 9 10 10 9 8 10 11 10 10 10 10 10 9 10 9 7 8 11 10 9 9 10 10 9 7 9 16 14 8 6 7 9 10 10 12 13 15 16 13 8 7 nan
nan 10 9 8 8 9 9 9 10 10 11 10 10 10 10 10 10 7 7 10 11 11 10 9 5 4 6 12 14 9 8 7 10 10 10 9 10 11 13 16 13 10 nan
nan 9 9 10 10 11 9 9 10 11 10 11 11 10 10 9 10 10 12 12 13 10 9 8 7 8 9 16 15 15 12 9 9 9 10 11 10 9 10 14 14 14 nan
nan 9 9 9 10 11 11 10 9 9 9 10 9 11 12 12 11 11 11 11 12 11 11 12 14 15 16 12 13 19 15 11 10 9 9 10 10 11 11 11 12 13 nan
nan 10 10 10 10 9 10 9 10 10 6 6 7 9 9 9 8 9 8 10 11 9 12 13 12 12 13 14 12 10 11 12 12 11 10 10 10 9 10 11 12 11 nan
nan 10 11 11 11 11 10 13 14 9 7 11 11 5 9 9 5 9 12 14 12 11 9 8 9 9 10 10 9 10 9 10 11 12 12 11 10 10 11 11 12 10 nan
nan 10 11 10 10 10 10 9 10 15 13 11 14 13 12 7 10 13 11 13 20 14 5 9 10 9 11 11 11 10 10 11 11 12 12 11 11 11 11 11 11 10 nan
nan 8 9 9 9 10 10 11 11 8 10 13 13 13 11 13 9 9 12 15 15 10 8 9 10 11 12 12 12 11 11 11 10 11 12 12 11 11 11 12 12 10 nan
nan 8 9 10 9 10 10 10 11 11 12 10 10 11 12 8 9 15 14 11 9 10 11 12 9 9 12 12 12 11 11 10 11 11 12 12 11 12 12 11 12 13 nan
nan 9 10 10 9 10 10 10 10 11 11 11 10 9 7 8 10 12 11 12 14 10 9 10 10 12 11 10 11 11 11 12 12 11 12 12 12 11 10 12 13 13 nan
nan 11 11 10 10 10 10 11 11 9 9 10 10 10 9 9 8 10 11 13 13 12 12 10 11 11 11 13 14 13 12 11 11 11 12 12 12 12 12 11 12 14 nan
nan 9 10 10 11 10 10 11 10 10 10 10 10 10 11 10 12 13 11 11 12 12 12 11 11 12 12 10 11 12 15 17 13 12 13 13 13 13 12 12 14 13 nan
nan 10 10 10 11 11 11 11 12 10 10 10 10 11 12 11 11 11 11 11 11 13 13 13 12 10 12 11 12 11 11 12 11 11 12 14 13 11 11 10 12 14 nan
nan 11 10 10 12 12 11 11 12 11 10 10 12 12 12 12 11 12 12 11 11 12 12 13 12 11 11 11 11 10 12 10 9 9 12 11 9 10 10 10 10 10 nan
nan 11 12 13 11 11 11 12 11 11 12 13 12 11 13 13 12 12 12 11 11 11 11 13 11 10 10 11 12 10 10 12 14 13 13 12 12 12 11 12 11 13 nan
nan nan nan nan nan nan nan nan nan nan nan nan nan nan nan nan nan nan nan nan nan nan nan nan nan nan nan nan nan nan nan nan nan nan nan nan nan nan nan nan nan nan nan
CAPE
624 992 990 887 940 1082 1273 1442 1430 1940 2139 2185 2424 2494 2157 2127 2212 1629 676 475 338 141 27 38 27 11 43 435 1424 1144 1020 590 859 814 70 0 0 0 0 0 0 0 0
512 950 1501 1612 1617 1719 1734 1675 1702 1461 819 583 412 553 826 1062 171 264 438 407 223 147 86 53 10 85 6 28 718 1305 1031 613 757 641 266 16 0 0 0 0 0 0 0
1390 1275 328 132 91 86 81 23 26 70 8 115 71 63 225 197 64 37 101 155 159 64 29 33 1 48 11 3 22 1412 1144 522 325 177 487 0 1 0 0 0 0 0 0
183 2 0 0 1 2 7 1 0 0 32 10 5 6 42 150 291 149 98 90 109 169 141 78 19 7 11 0 9 175 1628 1560 814 431 545 147 1 1 0 0 0 0 0
36 9 0 0 0 2 4 1 0 4 18 53 21 4 7 59 166 46 68 117 108 129 38 0 0 0 0 0 0 64 1350 1801 1728 1415 1122 3 1 3 2 0 0 0 0
1 0 0 0 0 0 0 2 0 0 0 0 0 0 0 0 0 0 0 0 0 0 1 0 0 0 0 0 0 0 142 755 1236 1316 1623 604 561 1 0 0 0 0 0
3 4 11 0 1 0 0 0 0 0 0 0 0 0 0 0 0 0 0 0 0 0 0 0 0 0 0 0 0 0 5 12 210 1229 1309 1469 1145 354 117 0 0 0 0
0 0 0 0 0 0 0 0 0 0 0 0 0 0 0 0 0 0 0 0 0 0 0 0 0 0 0 0 0 0 104 228 250 299 474 925 1331 1380 29 23 0 0 0
0 0 0 0 0 0 0 0 0 0 0 0 0 0 0 0 0 0 0 0 0 0 0 0 0 0 0 0 0 2 99 143 16 106 206 143 72 76 1 0 0 0 0
0 0 0 0 0 0 0 0 0 0 0 0 0 0 0 0 0 0 0 0 0 0 0 0 0 0 0 0 3 2 0 56 0 0 1 6 32 24 0 0 0 0 0
0 0 0 0 0 0 0 0 0 0 0 0 0 0 0 0 0 0 0 0 0 0 0 0 0 0 1 1 0 2 0 0 1 1 0 59 151 92 7 0 0 0 0
0 0 0 0 0 0 0 0 0 0 0 0 0 0 0 0 0 0 0 0 0 0 0 0 0 0 0 1 0 0 1 0 1 2 13 0 0 14 94 41 0 0 0
0 0 0 0 0 0 0 0 0 0 0 0 0 0 0 0 0 0 0 0 0 0 0 0 0 0 0 0 0 1 0 4 1 2 24 31 0 20 22 11 3 0 0
0 0 0 0 0 0 0 0 0 0 0 1 1 0 0 0 0 0 0 0 0 0 0 0 0 0 0 0 0 0 0 3 14 22 24 60 61 45 46 22 53 4 0
0 0 0 0 0 0 0 0 0 0 0 1 0 0 1 1 0 0 0 0 0 0 0 0 0 0 0 0 0 0 2 1 15 40 55 73 89 84 172 113 88 5 3
0 0 0 0 0 0 0 0 0 0 0 0 0 0 0 0 0 0 0 0 0 0 1 0 0 1 0 0 1 0 0 0 0 2 10 32 71 85 203 210 128 91 17
0 0 0 0 0 0 0 0 0 0 0 0 0 0 0 0 0 0 1 0 0 0 2 2 3 3 2 1 3 2 0 0 1 4 7 33 57 85 104 476 217 72 95
0 0 0 0 0 0 0 0 1 6 5 1 0 9 3 1 0 0 1 0 0 0 1 5 5 6 3 2 1 4 6 7 8 6 6 10 37 137 268 500 706 547 296
0 0 0 0 0 0 0 0 0 2 9 14 14 3 0 1 0 0 1 1 1 3 8 25 26 8 0 1 8 14 10 4 0 5 9 10 2 9 163 716 806 487 568
0 0 0 0 0 0 0 0 0 1 8 10 26 25 5 0 0 2 5 6 18 21 16 18 6 12 37 38 37 47 33 10 8 0 1 15 50 67 75 501 714 740 642
0 0 0 0 0 0 0 0 0 2 2 0 2 2 0 0 0 1 2 4 26 32 34 26 23 25 29 22 22 22 25 25 7 7 1 5 12 49 232 483 730 759 768
0 0 0 0 0 0 0 0 0 0 0 1 1 1 0 0 0 5 11 13 10 19 24 27 26 13 13 11 8 7 16 21 14 13 11 14 8 10 90 48 426 673 895
0 0 0 0 0 0 0 0 0 0 0 1 1 2 0 0 3 19 10 6 8 10 12 14 20 18 9 8 14 11 9 8 8 7 8 13 11 2 45 140 325 560 719
19 6 0 0 4 1 1 1 0 0 0 0 0 0 2 1 7 10 8 9 7 6 10 12 10 7 7 7 7 8 8 9 9 6 6 4 6 5 5 1 2 0 47
9 0 0 0 2 5 5 0 0 0 0 0 1 2 8 8 13 9 8 5 5 4 3 3 4 4 3 3 2 3 1 0 0 0 2 2 4 6 2 1 7 7 11
0 0 0 0 2 5 0 0 0 0 0 0 0 1 6 12 8 8 6 3 4 2 2 2 2 3 3 2 3 0 0 1 0 0 1 3 5 4 5 8 10 12 7